www.pogodaiklimat.ru

Погода и климат >> Архив погоды >> Ирак >> Hella


ПОГОДА в Hella

  • Прогноз погоды в Hella
  • Монитор погоды в Hella
  • Климат города

АРХИВ ПОГОДЫ в Hella

Время (UTC), дата Ветер
(напр.,м/с)
 
Видим.   Явления Облачность Т
(С)
Тd
(С)
f
(%)
Тe
(С)
Тes
(С)
Комфортность P
(гПа)
Po
(гПа)
Тmin
(С)
Tmax
(С)
R
(мм)
R24
(мм)
S
(см)
12 18.02 З 2 8000 м пыль 9/9 1050 м
[Cu Sc]
+17.4 +9.8 61 +18 +18 1008.5 1009.0
15 18.02 СЗ 30 5000 м слабый ливневой дождь 10/10 900 м
[Cu Sc]
+17.0 +11.0 68 +14 +14 1009.4 1009.0
18 18.02 штиль 21 10 км {ливн. осадки} 9/9 900 м
[Cu Sc]
+14.0 +11.3 84 +14 +14 1010.6 1011.0 +18.2 7
21 18.02 Ю 2 10 км слабый дождь 8/8 1050 м
[Sc]
+13.6 +10.9 84 +13 +13 1009.9 1010.0
00 19.02 штиль 0 10 км в посл. час дождь 8/8 1050 м
[]
+13.0 +10.7 86 +13 +13 1010.4 1010.0
06 19.02 З 2 10 км {дождь} ясно +11.8 +8.1 78 +11 +16 1013.2 1013.0 +10.4 4
09 19.02 З 6 10 км 4/4 1050 м
[Cu med, cong]
+17.0 +9.0 59 +16 +19 1014.2 1014.0
12 19.02 СЗ 5 10 км 4/4 1050 м
[Cu med, cong]
+18.4 +9.5 56 +18 +20 1013.7 1014.0
15 19.02 С 2 10 км ясно +14.6 +9.1 70 +14 +14 1015.4 1015.0
18 19.02 штиль 0 10 км ясно +11.6 +8.7 82 +11 +11 1016.4 1016.0 +19.0
00 20.02 штиль 0 10 км ясно +8.8 +7.5 92 +8 +8 1017.1 1017.0
03 20.02 штиль 0 6000 м дымка 4/0
[Ac trans]
+8.2 +6.9 92 +7 +7 1017.5 1018.0
06 20.02 штиль 0 8000 м дымка 8/0
[Ac trans Cs]
+11.2 +10.0 92 +10 +15 1018.8 1019.0 +7.5
09 20.02 СЗ 4 10 км 6/6 900 м
[Cu med, cong]
+16.2 +10.6 69 +16 +19 1018.2 1018.0
12 20.02 СЗ 4 10 км 9/9 900 м
[Cu Sc]
+18.0 +9.2 56 +18 +18 1016.1 1016.0
15 20.02 С 2 10 км 9/9 900 м
[Cu Sc]
+16.2 +10.1 67 +16 +16 1015.9 1016.0
18 20.02 штиль 0 10 км 9/9 900 м
[Cu Sc]
+14.2 +9.9 75 +14 +14 1015.1 1015.0 +18.8
21 20.02 штиль 0 10 км 10/10 900 м
[Cu Sc]
+13.4 +9.0 75 +13 +13 1014.1 1014.0
03 21.02 СВ 2 10 км 8/8 900 м
[Cu Sc]
+12.6 +9.8 83 +12 +12 1012.2 1012.0
06 21.02 С 2 10 км 9/9 1050 м
[Sc]
+13.8 +10.7 82 +13 +14 1014.6 1015.0 +11.8
09 21.02 ЮВ 2 10 км 8/8 1050 м
[Sc]
+18.0 +10.5 62 +19 +21 1013.5 1014.0
12 21.02 штиль 0 10 км 8/8 1050 м
[Sc]
+21.6 +13.2 59 +24 +26 комфорт 1011.0 1011.0
15 21.02 штиль 0 10 км 5/5 1000 м
[Sc]
+19.0 +11.7 63 +20 +20 1010.9 1011.0
18 21.02 штиль 0 10 км 9/9 1050 м
[Sc]
+17.2 +9.3 60 +17 +17 1010.5 1011.0 +22.0
21 21.02 штиль 0 10 км ясно +14.8 +9.8 72 +15 +15 1010.0 1010.0
00 22.02 штиль 0 10 км ясно +12.0 +10.0 88 +11 +11 1009.0 1009.0
03 22.02 штиль 0 10 км ясно +12.0 +9.2 83 +11 +11 1009.0 1009.0
06 22.02 ЮВ 2 10 км 10/0
[Cs]
+13.8 +9.0 73 +13 +18 1010.0 1010.0 +10.8
09 22.02 Ю 2 10 км 6/0
[Cs]
+19.8 +8.2 47 +21 +32 комфорт 1010.6 1011.0
12 22.02 штиль 0 10 км 3/0
[Ci sp]
+23.1 +10.8 46 +25 +32 комфорт 1009.1 1009.0
18 22.02 штиль 0 10 км 4/0
[Ci sp]
+16.4 +11.8 74 +16 +16 1010.4 1010.0 +23.5
21 22.02 штиль 0 10 км 4/0
[Ci sp]
+14.6 +11.6 82 +14 +14 1011.6 1012.0
06 23.02 штиль 0 10 км 9/8 1050 м
[Cu hum]
+12.8 +11.6 92 +12 +13 1012.1 1012.0 +10.6
09 23.02 штиль 0 10 км 10/0
[Cs]
+17.4 +12.4 72 +17 +31 опасность
простуды
1011.9 1012.0
12 23.02 штиль 0 10 км 10/10 1050 м
[Cu Sc]
+18.3 +13.1 72 +19 +19 1009.3 1009.0
15 23.02 штиль 0 6000 м слабый дождь 10/0
[As op]
+16.8 +14.3 85 +17 +17 1008.8 1009.0
21 23.02 штиль 0 8000 м в посл. час дождь 10/0
[As op]
+14.0 +13.1 94 +14 +14 1010.1 1010.0
03 24.02 штиль 0 8000 м дымка 6/6 1050 м
[Sc]
+13.0 +11.8 92 +12 +12 1008.4 1008.0
09 24.02 С 5 10 км 8/8 1050 м
[Cu Sc]
+17.2 +13.6 79 +17 +18 1009.3 1009.0
21 24.02 штиль 0 10 км ясно +12.4 +10.4 88 +12 +12 1010.2 1010.0
00 25.02 штиль 0 10 км 4/0
[Ci sp]
+10.6 +10.0 96 +10 +10 1009.9 1010.0

 

Местоположение метеостанции Hella (Ирак): широта 32.45 долгота 44.45 высота над уровнем моря 27 м.

В архиве по умолчанию представлена погода в Hella за последнюю неделю. Архивные данные за месяц целиком и за предыдущие месяцы, начиная с января 2011 года, Вы можете получить, выбрав интересующий диапазон дат из раскрывающегося списка и нажав кнопку "Ввод!".

Внимание! Время в таблицах - всемирное. Для получения местного времени необходимо прибавить поправку, которая в Hella равна 3 ч.

Смотрите также архив погоды в соседних городах и на ближайших метеорологических станциях:

Погода в Karbalaa (Ирак) (45 км)
Погода в Najaf (Ирак) (54 км)
Погода в Diwaniya (Ирак) (72 км)
Погода в Azizyah (Ирак) (78 км)
Погода в Baghdad (Ирак) (89 км)
Погода в Ubaydah Bin Al Jarrah (Ирак) (122 км)
Погода в Ayn Al-Tamar (Ирак) (125 км)
Погода в Heet (Ирак) (147 км)
Погода в Samawah (Ирак) (150 км)
Погода в Ramadi (Ирак) (153 км)

Пояснения к столбцам:

Ветер - указаны скорость ветра в м/с - средняя за 10 мин, порывы в срок и между сроками (в фигурных скобках) и направление, откуда дует ветер: С - северный, СВ - северо-восточный, В - восточный, ЮВ - юго-восточный, Ю - южный, ЮЗ - юго-западный, З - западный, СЗ - северо-западный.
Видимость - горизонтальная дальность видимости в метрах или километрах. При видимости от 1 до 10 км при отсутствии осадков обычно наблюдается дымка, при ухудшении видимости до 1 км и менее - туман. В сухую погоду видимость может ухудшаться дымом, пылью или мглою.
Явления - указаны атмосферные явления, наблюдавшиеся в срок или в последний час перед сроком; фигурными скобками обозначены явления, наблюдавшиеся между сроками (за 1-3 часа до срока); квадратными скобками обозначены град или гололедные отложения с указанием их диаметра в мм.
Облачность - указаны через наклонную черту общая и нижняя облачность в баллах и высота нижней границы облаков в метрах; квадратными скобками обозначены формы облаков: Ci - перистые, Cs - перисто-слоистые, Cc - перисто-кучевые, Ac - высококучевые, As - высокослоистые, Sc - слоисто-кучевые, Ns - слоисто-дождевые, Cu - кучевые, Cb - кучево-дождевые. Подробнее классификацию облаков см. в Атласе облаков (PDF).
T - Температура воздуха - температура, измеренная на высоте 2 м над землей.
Td - Температура точки росы - температура, при понижении до которой содержащийся в воздухе водяной пар достигнет насыщения.
f - Относительная влажность воздуха - влажноcть воздуха, измеренная на высоте 2 м над землей.
Te - Эффективная температура - температура, которую ощущает одетый по сезону человек в тени. Характеристика душности погоды. При расчете учитывается влияние влажности воздуха и скорости ветра на теплоощущения человека.
Tes - Эффективная температура на солнце - температура, которую ощущает человек, с поправкой на солнечный нагрев. Характеристика знойности погоды. Зависит от высоты солнца над горизонтом, облачности и скорости ветра. Ночью, в пасмурную погоду, а также при ветре 12 м/с и более поправка равна нулю.
P - Атмосферное давление - приведенное к уровню моря атмосферное давление.
Po - Атмосферное давление - измеренное на уровне метеостанции атмосферное давление.
Tmin - Минимальная температура - минимум температуры воздуха на высоте 2 м над землей.
Tmax - Максимальная температура - максимум температуры воздуха на высоте 2 м над землей.
R - Количество осадков - Количество выпавших осадков за период времени, мм. При наведении курсора мыши на число - период времени, за который выпало указанное количество осадков.
R24 - Количество осадков - Количество выпавших осадков за 24 часа, мм.
S - Снежный покров - Высота снежного покрова, см. При наведении курсора мыши на число - состояние снежного покрова и степень покрытия местности в баллах.